Flag for South Korea Weather past 2 weeks in Daegu, South Korea

Now
57 °F

Fog.


Feels Like: 57 °F
Forecast: 50 / 58 °F
Wind: 2 mph from Northwest

Location: Taegu Ab

Current Time: Apr 1, 2015 at 3:01:43 AM

Latest Report: Apr 1, 2015 at 12:55 AM


Visibility: 2 mi

Pressure: 29.89 "Hg

Humidity: 94%

Dew point: 55 °F

Location of DaeguLocation

Historic Weather in Daegu — Graph

°F

Daegu temperature yesterday

Maximum temperature yesterday: 61 °F (at 3:00 PM)
Minimum temperature yesterday: 48 °F (at 6:00 AM)
Average temperature yesterday: 56 °F

Past Weeks' High & Low Weather Summary

 TemperatureHumidityPressure
High72 °F (Mar 17, 3:00 PM)94% (Mar 18, 9:00 AM)30.57 "Hg (Mar 18, 9:00 AM)
Low32 °F (Mar 24, 6:00 AM)6% (Mar 22, 8:00 PM)29.77 "Hg (Mar 18, 4:00 PM)
Average53 °F50%30.11 "Hg
* Reported Mar 17 12:55 AM — Apr 1 12:55 AM, Daegu, Weather by CustomWeather, © 2015

Note: Actual official high and low records may vary slightly from our data, if they occured in-between our weather recording intervals... More about our weather records

Advertising

Daegu weather history for previous 24 hours

 ConditionsComfort  
Time TempWeatherWind HumidityBarometerVisibility
12:55 AM
Wed, Apr 1
57 °FFog.2 mph94%29.89 "Hg2 mi
11:55 PM
Tue, Mar 31
59 °FFog.1 mph88%29.90 "Hg2 mi
10:55 PM59 °FFog.3 mph88%29.91 "Hg2 mi
10:00 PM59 °FFog.2 mph94%29.92 "Hg2 mi
9:00 PM59 °FLight rain. Fog.1 mph88%29.92 "Hg2 mi
8:00 PM59 °FLight rain. Fog.1 mph88%29.89 "Hg2 mi
7:00 PM59 °FLight rain. Fog.1 mph88%29.89 "Hg2 mi
6:00 PM61 °FLight rain. Fog.2 mph77%29.92 "Hg2 mi
5:00 PM61 °FFog.5 mph77%29.89 "Hg2 mi
4:00 PM61 °FFog.3 mph77%29.92 "Hg2 mi
3:53 PM61 °FFog.2 mph77%29.93 "Hg2 mi
3:00 PM61 °FFog.3 mph77%29.95 "Hg2 mi
2:00 PM59 °FFog.1 mph77%29.98 "Hg2 mi
1:00 PM57 °FFog.2 mph82%30.01 "Hg2 mi
12:00 PM57 °FFog.1 mph77%30.04 "Hg2 mi
11:00 AM57 °FFog.1 mph72%30.04 "Hg2 mi
10:48 AM57 °FFog.1 mph72%30.04 "Hg2 mi
10:00 AM57 °FFog.1 mph72%30.04 "Hg3 mi
9:00 AM55 °FFog.1 mph77%30.04 "Hg3 mi
8:00 AM54 °FFog.1 mph82%30.04 "Hg2 mi
7:00 AM48 °FFog.1 mph94%30.04 "Hg2 mi
6:00 AM48 °FFog.1 mph94%30.04 "Hg3 mi
5:00 AM50 °FFog.1 mph88%30.04 "Hg3 mi
3:55 AM52 °FFog.1 mph82%30.05 "Hg3 mi
Weather by CustomWeather, © 2015

See weather overviewHow to use our weather pages